Tracking 29892 objects as of 21-Nov-2024
HD Live streaming from Space Station
objects crossing your sky now

BREEZE-M DEB (TANK)

Track BREEZE-M DEB (TANK) now!
10-day predictions


NORAD ID: 28528
Int'l Code: 2005-003C
Perigee: 325.6 km
Apogee: 13,993.2 km
Inclination: 49.5 °
Period: 261.1 minutes
Semi major axis: 13530 km
RCS: 6.9313 m2 (large)
Launch date: February 3, 2005
Source: Commonwealth of Independent States (former USSR) (CIS)
Launch site: TYURATAM MISSILE AND SPACE COMPLEX (TTMTR)

Note: This is SATELLITE DEBRIS
Your satellite tracking list
Your tracking list is empty




NASA's NSSDC Master Catalog

Two Line Element Set (TLE):
1 28528U 05003C   24324.98199519  .00005644  00000-0  12111-2 0  9996
2 28528  49.5093 252.2560 5050701 154.5054 242.9450  5.51616054380225
Source of the keplerian elements: AFSPC